Home > Weather > Douglas > Past weeks

Flag for Isle of Man Past Weather in Douglas, Isle of Man — Yesterday and Last 2 Weeks

Now
59 °F

Partly sunny.


Feels Like: 57 °F
Forecast: 54 / 64 °F
Wind: 9 mph from Southwest

Location: Isle Of Man / Ronaldsway Airport

Current Time: Jul 26, 2016 at 7:09:35 PM

Latest Report: Jul 26, 2016 at 6:20 PM


Visibility: 6 mi

Pressure: 29.98 "Hg

Humidity: 94%

Dew Point: 57 °F

Location of DouglasLocation

Past Weather in Douglas — Graph

°F

Douglas Temperature Yesterday

Maximum temperature yesterday: 63 °F (at 1:20 PM)
Minimum temperature yesterday: 55 °F (at 4:50 AM)
Average temperature yesterday: 59 °F

High & Low Weather Summary for the Past Weeks

 TemperatureHumidityPressure
High79 °F (Jul 19, 5:20 PM)100% (Jul 15, 6:20 AM)30.27 "Hg (Jul 15, 6:20 AM)
Low52 °F (Jul 13, 2:50 AM)49% (Jul 14, 1:20 PM)29.68 "Hg (Jul 20, 7:20 AM)
Average60 °F85%30.03 "Hg
* Reported Jul 11 5:20 PM — Jul 26 5:50 PM, Douglas, Weather by CustomWeather, © 2016

Note: Actual official high and low records may vary slightly from our data, if they occured in-between our weather recording intervals... More about our weather records

Advertising

Douglas Weather History for the Previous 24 Hours

Scroll right to see more
 ConditionsComfort  
Time TempWeatherWind HumidityBarometerVisibility
5:50 PM
Tue, Jul 26
59 °FPartly sunny.10 mph94%29.98 "Hg6 mi
5:20 PM59 °FDrizzle. Mostly cloudy.10 mph100%30.01 "Hg4 mi
4:50 PM59 °FLow clouds.12 mph94%30.01 "HgN/A
4:20 PM61 °FMore clouds than sun.12 mph88%30.01 "HgN/A
3:50 PM61 °FPartly sunny.10 mph88%30.04 "HgN/A
3:20 PM61 °FPassing clouds.12 mph88%30.04 "HgN/A
2:50 PM63 °FPassing clouds.10 mph83%30.04 "HgN/A
2:20 PM61 °FPassing clouds.9 mph88%30.04 "HgN/A
1:50 PM61 °FPassing clouds.10 mph88%30.07 "HgN/A
1:20 PM61 °FScattered clouds.12 mph88%30.07 "HgN/A
12:50 PM59 °FScattered clouds.10 mph94%30.07 "HgN/A
12:20 PM59 °FPartly sunny.12 mph94%30.07 "HgN/A
11:50 AM59 °FBroken clouds.12 mph94%30.07 "HgN/A
11:20 AM61 °FPartly sunny.13 mph88%30.07 "HgN/A
10:50 AM61 °FPassing clouds.10 mph88%30.07 "HgN/A
10:20 AM61 °FPassing clouds.8 mph88%30.07 "HgN/A
9:50 AM59 °FPassing clouds.9 mph88%30.07 "HgN/A
9:20 AM59 °FPassing clouds.9 mph94%30.07 "HgN/A
8:50 AM57 °FLight rain. Scattered clouds.5 mph94%30.09 "HgN/A
8:20 AM57 °FPassing clouds.2 mph94%30.09 "HgN/A
7:50 AM57 °FScattered clouds.2 mph88%30.09 "HgN/A
7:20 AM57 °FLight rain. Scattered clouds.3 mph88%30.07 "HgN/A
6:50 AM57 °FScattered clouds.5 mph88%30.07 "HgN/A
6:20 AM55 °FPassing clouds.5 mph94%30.07 "HgN/A
5:50 AM55 °FPassing clouds.5 mph94%30.07 "HgN/A
5:20 AM55 °FPassing clouds.2 mph88%30.07 "HgN/A
4:50 AM55 °FPassing clouds.5 mph88%30.07 "HgN/A
3:50 AM57 °FPassing clouds.6 mph88%30.07 "HgN/A
2:50 AM57 °FPassing clouds.6 mph94%30.07 "HgN/A
1:50 AM59 °FPartly cloudy.7 mph88%30.07 "HgN/A
12:50 AM57 °FPartly cloudy.7 mph94%30.07 "HgN/A
11:50 PM
Mon, Jul 25
57 °FPassing clouds.7 mph94%30.07 "HgN/A
10:50 PM57 °FPartly cloudy.7 mph94%30.07 "HgN/A
9:50 PM59 °FPassing clouds.8 mph88%30.07 "HgN/A
8:50 PM59 °FPassing clouds.10 mph88%30.07 "HgN/A
8:20 PM59 °FPassing clouds.12 mph88%30.07 "HgN/A
7:50 PM59 °FPassing clouds.13 mph88%30.07 "HgN/A
7:20 PM59 °FPassing clouds.12 mph88%30.04 "HgN/A
Weather by CustomWeather, © 2016

See weather overviewHow to use our weather pages